Regional Weather Roundup
Issued by NWS

Home | Current Version | Previous Version | Graphics & Text | Print | Product List | Glossary On
Versions: 1 2 3 4 5 6 7 8 9 10 11 12 13 14 15 16 17 18 19 20 21 22 23 24 25 26 27 28 29 30 31 32 33 34 35 36 37 38 39 40 41 42 43 44 45 46 47 48 49 50
000
ASUS43 KLOT 210312
RWRIL

ILLINOIS REGIONAL WEATHER ROUNDUP
NATIONAL WEATHER SERVICE CHICAGO/ROMEOVILLE IL
900 PM CST FRI JAN 20 2017

NOTE: "FAIR" INDICATES FEW OR NO CLOUDS BELOW 12,000 FEET WITH NO
SIGNIFICANT WEATHER AND/OR OBSTRUCTIONS TO VISIBILITY.

* THESE STATIONS ARE NOT UNDER NWS QUALITY CONTROL. THEY ALSO MAY NOT
  REPORT WEATHER SUCH AS PRECIPITATION OR FOG.

ILZ001-002-007-009-015-016-024-210400-
NORTHWEST ILLINOIS

CITY           SKY/WX    TMP DP  RH WIND       PRES   REMARKS
MOLINE         FOG       42  40  92 E5        29.58R VSB 1/4
STERLING*      FOG       38  38 100 E5        29.61S VSB 1/4 WCI  34
SAVANNA*       LGT RAIN  39  38  99 NE5       29.60S VSB 1/2
$$

ILZ003-004-008-010-011-017-018-210400-
NORTH CENTRAL ILLINOIS

CITY           SKY/WX    TMP DP  RH WIND       PRES   REMARKS
ROCKFORD       FOG       40  39  97 SE5       29.63F VSB 1/4
FREEPORT*      FOG       37  37 100 E5        29.63R VSB 1/4 WCI  33
ROCHELLE*      FOG       39  39 100 E6        29.62S VSB 1/4 WCI  35
DE KALB*       FOG       39  39 100 E7        29.63S VSB 1/4 WCI  34
$$

ILZ005-006-012>014-019>023-210400-
NORTHEAST ILLINOIS

CITY           SKY/WX    TMP DP  RH WIND       PRES   REMARKS
CHICAGO-OHARE  DRZL/FOG  42  41  96 NE3       29.64F VSB 1/2
CHICAGO-MIDWAY CLOUDY    42  40  92 SE3       29.65S FOG
AURORA         FOG       42  40  92 E7        29.63  VSB 1/4
LANSING*       CLOUDY    46  46 100 S6        29.66S FOG
JOLIET*        DRIZZLE   46  46 100 CALM      29.65R
WAUKEGAN       FOG       37  36  96 E5        29.65F VSB 1/4 WCI  33
DUPAGE AIRPORT FOG       42  41  96 SE3       29.63F VSB 1/4
KANKAKEE*      CLOUDY    46  46  97 CALM      29.65F FOG
WHEELING       FOG       38  38 100 E3        29.66F VSB 1/4
MORRIS*        LGT RAIN  44  44  98 SE7       29.63S VSB 1/2
ROMEOVILLE*    DRIZZLE   45  45 100 S7        29.64S
NORTHERLY ISL    N/A     37  37 100 CALM        N/A
$$

LMZ740>746-210400-
SOUTHERN LAKE MICHIGAN

STATION/POSITION SKY/WX   TEMP    WIND        PRES    VSBY  WAVE
                          AIR SEA DIR/SP/G                  HT/PER
                          (F)     (DEG/KT/KT) (MB)    (MI)  (FT/S)
HARRISON CRIB              39     140/  5/  6   N/A
BURNHAM HARBOR             37      CALM  /  2   N/A
CALUMET HARBOR             37     100/  2/  3 1004.0R
BURNS HARBOR               48     170/  7/ 12 1005.4R
MICHIGAN CITY              47     140/  9/ 10   N/A
$$

ILZ025>027-034>036-040-047-049-050-058-095>099-210400-
WEST-CENTRAL ILLINOIS

CITY           SKY/WX    TMP DP  RH WIND       PRES   REMARKS
QUINCY         CLOUDY    48  47  96 SE12      29.54F FOG
GALESBURG*     CLOUDY    44  44 100 E7        29.57F FOG
MACOMB*        FOG       45  45 100 SE6       29.59F VSB 1/4
JACKSONVILLE*  CLOUDY    48  47  97 SE8       29.59S FOG
PITTSFIELD*    MOCLDY    47  47  99 E6        29.57F FOG
$$

ILZ028>032-037-038-041>044-048-051>054-059>061-210400-
CENTRAL ILLINOIS

CITY           SKY/WX    TMP DP  RH WIND       PRES   REMARKS
PONTIAC        DRIZZLE   45  45 100 SE7       29.63F
BLOOMINGTON    CLOUDY    48  47  96 SE12      29.62S
DECATUR        CLOUDY    53  52  96 S12       29.62S
PEORIA         CLOUDY    48  48 100 S5        29.61R FOG
LACON*         CLOUDY    45  45 100 SE7       29.60R FOG
LINCOLN*       CLOUDY    49  49 100 SE3       29.61R FOG
SPRINGFIELD    CLOUDY    51  49  92 SE6       29.61R FOG
TAYLORVILLE    CLOUDY    51  50  97 S9        29.61S
$$

ILZ033-039-045-046-055>057-062-063-210400-
EAST-CENTRAL ILLINOIS

CITY           SKY/WX    TMP DP  RH WIND       PRES   REMARKS
CHAMPAIGN      CLOUDY    49  47  93 SE10      29.64R
RANTOUL*       CLOUDY    50  49  96 SE9       29.64S
MATTOON        CLOUDY    53  50  89 S10       29.64R
PARIS*         CLOUDY    50  50  98 SE8       29.67S
$$

ILZ079-100>102-210400-
SOUTHWEST ILLINOIS

CITY           SKY/WX    TMP DP  RH WIND       PRES   REMARKS
ALTON          CLEAR     50  50 100 SE6       29.60S
BELLEVILLE     CLEAR     54  54 100 SE6       29.60R
CAHOKIA*       CLEAR     54  50  86 S8        29.59S
SPARTA*        CLEAR     57  52  85 S13G18    29.63S
$$

ILZ064>066-069>071-074>076-080>082-084>086-088>090-092>094-210400-
SOUTH-CENTRAL ILLINOIS

CITY           SKY/WX    TMP DP  RH WIND       PRES   REMARKS
CARBONDALE     CLEAR     54  53  97 S7        29.64F
CAIRO*         CLEAR     54  51  90 SE7       29.66S
EFFINGHAM*     CLOUDY    55  54  97 SE5       29.67R
MARION         CLEAR     55  55 100 S12       29.66S
MT. VERNON     MOCLDY    55  51  86 S6        29.65S
CENTRALIA*     CLEAR     53  52  94 S7        29.63S
SALEM*         CLEAR     56  52  85 S7        29.64S
METROPOLIS*    CLEAR     53  52  94 CALM      29.68S
$$

ILZ067-068-072-073-078-083-087-091-210400-
SOUTHEAST ILLINOIS

CITY           SKY/WX    TMP DP  RH WIND       PRES   REMARKS
LAWRENCEVILLE  CLOUDY    52  51  97 S7        29.69R
FLORA*         PTCLDY    55  51  88 S10       29.65F
FAIRFIELD*     CLOUDY    55  51  88 SE5       29.65F
HARRISBURG*    PTCLDY    56  53  87 S7        29.67R
ROBINSON*      CLOUDY    53  50  92 S7        29.69S
CARMI*         PTCLDY    51  51  98 S9        29.67S
$$

ABBREVIATIONS USED IN REMARKS
   TC - TEMPERATURE IN CELSIUS
  WCI - WIND CHILL INDEX
   HX - HEAT INDEX
  VSB - VISIBILITY
$$




USA.gov is the U.S. government's official web portal to all federal, state and local government web resources and services.